Time,TemperatureF,DewpointF,PressureIn,WindDirection,WindDirectionDegrees,WindSpeedMPH,WindSpeedGustMPH,Humidity,HourlyPrecipIn,Conditions,Clouds,dailyrainin,SoftwareType,DateUTC
2013-05-26 00:00:00,71.1,67.0,29.98,SSE,150,6.0,11.0,87,0.00,,---,0.00,VWS V14.01,2013-05-26 05:00:00,
2013-05-26 00:03:00,71.1,67.0,29.99,SSE,151,5.0,12.0,87,0.00,,---,0.00,VWS V14.01,2013-05-26 05:03:00,
2013-05-26 00:07:00,71.1,67.0,29.98,SSE,155,5.0,12.0,87,0.00,,---,0.00,VWS V14.01,2013-05-26 05:07:00,
2013-05-26 00:10:00,71.1,67.0,29.98,South,172,8.0,12.0,87,0.00,,---,0.00,VWS V14.01,2013-05-26 05:10:00,
2013-05-26 00:13:00,71.2,67.1,29.98,SSE,159,6.0,12.0,87,0.00,,---,0.00,VWS V14.01,2013-05-26 05:13:00,
2013-05-26 00:16:00,71.1,67.0,29.98,South,177,7.0,12.0,87,0.00,,---,0.00,VWS V14.01,2013-05-26 05:16:00,
2013-05-26 00:19:00,71.1,67.0,29.98,SSE,159,2.0,12.0,87,0.00,,---,0.00,VWS V14.01,2013-05-26 05:19:00,
2013-05-26 00:22:00,71.0,66.9,29.98,South,187,5.0,12.0,87,0.00,,---,0.00,VWS V14.01,2013-05-26 05:22:00,
2013-05-26 00:25:00,71.0,66.9,29.98,South,169,6.0,12.0,87,0.00,,---,0.00,VWS V14.01,2013-05-26 05:25:00,
2013-05-26 00:28:00,71.0,66.9,29.97,South,180,3.0,12.0,87,0.00,,---,0.00,VWS V14.01,2013-05-26 05:28:00,
2013-05-26 00:30:00,70.9,66.8,29.97,South,182,7.0,12.0,87,0.00,,---,0.00,VWS V14.01,2013-05-26 05:30:00,
2013-05-26 00:31:00,70.9,66.8,29.97,SSE,164,7.0,8.0,87,0.00,,---,0.00,VWS V14.01,2013-05-26 05:31:00,
2013-05-26 00:34:00,70.9,66.8,29.97,SSW,201,7.0,9.0,87,0.00,,---,0.00,VWS V14.01,2013-05-26 05:34:00,
2013-05-26 00:37:00,70.9,66.8,29.97,SE,136,6.0,10.0,87,0.00,,---,0.00,VWS V14.01,2013-05-26 05:37:00,
2013-05-26 00:40:00,70.9,67.2,29.96,SSE,157,9.0,12.0,88,0.00,,---,0.00,VWS V14.01,2013-05-26 05:40:00,
2013-05-26 00:43:00,70.9,67.2,29.96,SSE,159,8.0,12.0,88,0.00,,---,0.00,VWS V14.01,2013-05-26 05:43:00,
2013-05-26 00:46:00,70.9,67.2,29.96,South,175,3.0,12.0,88,0.00,,---,0.00,VWS V14.01,2013-05-26 05:46:00,
2013-05-26 00:49:00,70.8,67.1,29.96,SSE,154,6.0,12.0,88,0.00,,---,0.00,VWS V14.01,2013-05-26 05:49:00,
2013-05-26 00:52:00,70.9,67.2,29.96,South,171,7.0,12.0,88,0.00,,---,0.00,VWS V14.01,2013-05-26 05:52:00,
2013-05-26 00:55:00,70.9,67.2,29.96,SSE,162,5.0,12.0,88,0.00,,---,0.00,VWS V14.01,2013-05-26 05:55:00,
2013-05-26 00:58:00,70.9,67.2,29.96,South,171,6.0,12.0,88,0.00,,---,0.00,VWS V14.01,2013-05-26 05:58:00,
2013-05-26 01:00:00,70.9,67.2,29.96,South,191,4.0,12.0,88,0.00,,---,0.00,VWS V14.01,2013-05-26 06:00:00,
2013-05-26 01:01:00,70.9,67.2,29.96,South,184,6.0,11.0,88,0.00,,---,0.00,VWS V14.01,2013-05-26 06:01:00,
2013-05-26 01:04:00,70.9,67.2,29.95,SSE,156,8.0,11.0,88,0.00,,---,0.00,VWS V14.01,2013-05-26 06:04:00,
2013-05-26 01:07:00,70.9,67.2,29.96,South,185,7.0,11.0,88,0.00,,---,0.00,VWS V14.01,2013-05-26 06:07:00,
2013-05-26 01:10:00,70.8,67.1,29.96,SSW,202,5.0,12.0,88,0.00,,---,0.00,VWS V14.01,2013-05-26 06:10:00,
2013-05-26 01:13:00,70.8,67.1,29.96,SE,145,7.0,12.0,88,0.00,,---,0.00,VWS V14.01,2013-05-26 06:13:00,
2013-05-26 01:16:00,70.8,67.1,29.96,SSE,161,6.0,12.0,88,0.00,,---,0.00,VWS V14.01,2013-05-26 06:16:00,
2013-05-26 01:19:00,70.8,67.1,29.96,South,188,11.0,17.0,88,0.00,,---,0.00,VWS V14.01,2013-05-26 06:19:00,
2013-05-26 01:22:00,70.9,67.2,29.96,SSW,202,7.0,17.0,88,0.00,,---,0.00,VWS V14.01,2013-05-26 06:22:00,
2013-05-26 01:25:00,70.9,67.2,29.96,SSE,165,7.0,17.0,88,0.00,,---,0.00,VWS V14.01,2013-05-26 06:25:00,
2013-05-26 01:28:00,70.9,67.2,29.96,SSE,168,6.0,17.0,88,0.00,,---,0.00,VWS V14.01,2013-05-26 06:28:00,
2013-05-26 01:30:00,70.9,67.2,29.96,South,178,6.0,17.0,88,0.00,,---,0.00,VWS V14.01,2013-05-26 06:30:00,
2013-05-26 01:31:00,70.9,67.2,29.96,South,175,6.0,8.0,88,0.00,,---,0.00,VWS V14.01,2013-05-26 06:31:00,
2013-05-26 01:34:00,71.0,67.3,29.95,South,176,11.0,12.0,88,0.00,,---,0.00,VWS V14.01,2013-05-26 06:34:00,
2013-05-26 01:37:00,71.0,67.3,29.95,South,180,9.0,12.0,88,0.00,,---,0.00,VWS V14.01,2013-05-26 06:37:00,
2013-05-26 01:40:00,71.0,67.3,29.95,South,186,5.0,12.0,88,0.00,,---,0.00,VWS V14.01,2013-05-26 06:40:00,
2013-05-26 01:43:00,70.9,67.2,29.95,South,177,7.0,12.0,88,0.00,,---,0.00,VWS V14.01,2013-05-26 06:43:00,
2013-05-26 01:46:00,70.9,67.2,29.95,SSW,194,6.0,12.0,88,0.00,,---,0.00,VWS V14.01,2013-05-26 06:46:00,
2013-05-26 01:49:00,70.9,67.2,29.95,South,188,11.0,12.0,88,0.00,,---,0.00,VWS V14.01,2013-05-26 06:49:00,
2013-05-26 01:52:00,70.9,67.2,29.95,South,188,9.0,12.0,88,0.00,,---,0.00,VWS V14.01,2013-05-26 06:52:00,
2013-05-26 01:55:00,70.9,67.2,29.94,South,175,8.0,12.0,88,0.00,,---,0.00,VWS V14.01,2013-05-26 06:55:00,
2013-05-26 01:58:00,71.0,67.3,29.94,South,183,4.0,13.0,88,0.00,,---,0.00,VWS V14.01,2013-05-26 06:58:00,
2013-05-26 02:00:00,70.9,67.2,29.94,South,180,5.0,13.0,88,0.00,,---,0.00,VWS V14.01,2013-05-26 07:00:00,
2013-05-26 02:01:00,70.9,67.2,29.94,South,169,5.0,9.0,88,0.00,,---,0.00,VWS V14.01,2013-05-26 07:01:00,
2013-05-26 02:07:00,70.9,67.5,29.94,SSW,209,7.0,12.0,89,0.00,,---,0.00,VWS V14.01,2013-05-26 07:07:00,
2013-05-26 02:10:00,70.9,67.2,29.94,South,184,7.0,12.0,88,0.00,,---,0.00,VWS V14.01,2013-05-26 07:10:00,
2013-05-26 02:20:00,71.1,67.7,29.93,South,174,8.0,14.0,89,0.00,,---,0.00,VWS V14.01,2013-05-26 07:20:00,
2013-05-26 02:23:00,71.2,67.5,29.94,South,175,6.0,14.0,88,0.00,,---,0.00,VWS V14.01,2013-05-26 07:23:00,
2013-05-26 02:26:00,71.2,67.5,29.94,South,185,5.0,14.0,88,0.00,,---,0.00,VWS V14.01,2013-05-26 07:26:00,
2013-05-26 02:29:00,71.2,67.5,29.93,South,182,4.0,14.0,88,0.00,,---,0.00,VWS V14.01,2013-05-26 07:29:00,
2013-05-26 02:32:00,71.2,67.5,29.93,SSE,161,7.0,9.0,88,0.00,,---,0.00,VWS V14.01,2013-05-26 07:32:00,
2013-05-26 02:38:00,71.1,67.4,29.93,South,180,7.0,9.0,88,0.00,,---,0.00,VWS V14.01,2013-05-26 07:38:00,
2013-05-26 02:47:00,71.2,67.5,29.92,SSE,164,7.0,12.0,88,0.00,,---,0.00,VWS V14.01,2013-05-26 07:47:00,
2013-05-26 02:50:00,71.2,67.5,29.92,South,181,8.0,12.0,88,0.00,,---,0.00,VWS V14.01,2013-05-26 07:50:00,
2013-05-26 03:00:00,71.2,67.5,29.92,SSE,168,11.0,13.0,88,0.00,,---,0.00,VWS V14.01,2013-05-26 08:00:00,
2013-05-26 03:03:00,70.8,67.1,29.94,South,186,4.0,11.0,88,0.00,,---,0.00,VWS V14.01,2013-05-26 08:03:00,
2013-05-26 03:12:00,71.0,67.3,29.94,South,182,5.0,12.0,88,0.00,,---,0.00,VWS V14.01,2013-05-26 08:12:00,
2013-05-26 03:15:00,71.0,67.3,29.93,South,190,10.0,12.0,88,0.00,,---,0.00,VWS V14.01,2013-05-26 08:15:00,
2013-05-26 03:26:00,71.1,67.7,29.91,South,182,10.0,12.0,89,0.00,,---,0.00,VWS V14.01,2013-05-26 08:26:00,
2013-05-26 03:28:00,71.2,67.5,29.93,South,177,4.0,14.0,88,0.00,,---,0.00,VWS V14.01,2013-05-26 08:28:00,
2013-05-26 03:33:00,71.1,67.4,29.93,South,169,6.0,9.0,88,0.00,,---,0.00,VWS V14.01,2013-05-26 08:33:00,
2013-05-26 03:39:00,71.1,67.4,29.92,SSW,192,9.0,11.0,88,0.00,,---,0.00,VWS V14.01,2013-05-26 08:39:00,
2013-05-26 03:42:00,71.2,67.5,29.92,South,184,5.0,12.0,88,0.00,,---,0.00,VWS V14.01,2013-05-26 08:42:00,
2013-05-26 03:51:00,71.2,67.5,29.92,SSE,167,11.0,13.0,88,0.00,,---,0.00,VWS V14.01,2013-05-26 08:51:00,
2013-05-26 03:54:00,71.3,67.6,29.92,SSE,166,5.0,13.0,88,0.00,,---,0.00,VWS V14.01,2013-05-26 08:54:00,
2013-05-26 03:57:00,71.2,67.5,29.92,South,171,6.0,13.0,88,0.00,,---,0.00,VWS V14.01,2013-05-26 08:57:00,
2013-05-26 04:00:00,71.2,67.5,29.91,South,186,6.0,11.0,88,0.00,,---,0.00,VWS V14.01,2013-05-26 09:00:00,
2013-05-26 04:07:00,71.2,67.5,29.91,SSE,164,7.0,12.0,88,0.00,,---,0.00,VWS V14.01,2013-05-26 09:07:00,
2013-05-26 04:10:00,71.1,67.4,29.91,SSE,167,4.0,12.0,88,0.00,,---,0.00,VWS V14.01,2013-05-26 09:10:00,
2013-05-26 04:13:00,71.1,67.7,29.91,South,173,5.0,12.0,89,0.00,,---,0.00,VWS V14.01,2013-05-26 09:13:00,
2013-05-26 04:19:00,71.0,67.6,29.90,SSE,151,3.0,12.0,89,0.00,,---,0.00,VWS V14.01,2013-05-26 09:19:00,
2013-05-26 04:22:00,71.0,67.6,29.90,SSE,152,10.0,12.0,89,0.00,,---,0.00,VWS V14.01,2013-05-26 09:22:00,
2013-05-26 04:28:00,71.1,67.7,29.91,SSW,197,5.0,12.0,89,0.00,,---,0.00,VWS V14.01,2013-05-26 09:28:00,
2013-05-26 04:31:00,71.1,67.7,29.90,SSE,166,7.0,13.0,89,0.00,,---,0.00,VWS V14.01,2013-05-26 09:31:00,
2013-05-26 04:34:00,71.1,67.7,29.90,SSE,155,13.0,13.0,89,0.00,,---,0.00,VWS V14.01,2013-05-26 09:34:00,
2013-05-26 04:37:00,71.1,67.7,29.90,South,171,9.0,14.0,89,0.00,,---,0.00,VWS V14.01,2013-05-26 09:37:00,
2013-05-26 04:40:00,70.9,67.5,29.90,South,175,5.0,14.0,89,0.00,,---,0.00,VWS V14.01,2013-05-26 09:40:00,
2013-05-26 04:46:00,70.8,67.4,29.90,SSE,155,7.0,14.0,89,0.00,,---,0.00,VWS V14.01,2013-05-26 09:46:00,
2013-05-26 04:49:00,70.8,67.4,29.90,South,180,9.0,14.0,89,0.00,,---,0.00,VWS V14.01,2013-05-26 09:49:00,
2013-05-26 04:52:00,70.8,67.4,29.90,SSE,162,9.0,14.0,89,0.00,,---,0.00,VWS V14.01,2013-05-26 09:52:00,
2013-05-26 04:58:00,70.8,67.4,29.90,South,186,9.0,14.0,89,0.00,,---,0.00,VWS V14.01,2013-05-26 09:58:00,
2013-05-26 05:01:00,70.8,67.4,29.90,SSE,155,5.0,13.0,89,0.00,,---,0.00,VWS V14.01,2013-05-26 10:01:00,
2013-05-26 05:04:00,70.8,67.4,29.90,SSE,165,6.0,13.0,89,0.00,,---,0.00,VWS V14.01,2013-05-26 10:04:00,
2013-05-26 05:10:00,70.8,67.4,29.90,SE,143,5.0,13.0,89,0.00,,---,0.00,VWS V14.01,2013-05-26 10:10:00,
2013-05-26 05:13:00,70.8,67.7,29.90,SSE,151,6.0,13.0,90,0.00,,---,0.00,VWS V14.01,2013-05-26 10:13:00,
2013-05-26 05:19:00,70.7,67.6,29.90,SSE,162,6.0,15.0,90,0.00,,---,0.00,VWS V14.01,2013-05-26 10:19:00,
2013-05-26 05:22:00,70.7,67.6,29.90,SE,146,5.0,15.0,90,0.00,,---,0.00,VWS V14.01,2013-05-26 10:22:00,
2013-05-26 05:25:00,70.7,67.6,29.90,SSE,163,8.0,15.0,90,0.00,,---,0.00,VWS V14.01,2013-05-26 10:25:00,
2013-05-26 05:28:00,70.8,67.7,29.89,South,174,3.0,15.0,90,0.00,,---,0.00,VWS V14.01,2013-05-26 10:28:00,
2013-05-26 05:31:00,70.7,67.6,29.90,South,173,6.0,15.0,90,0.00,,---,0.00,VWS V14.01,2013-05-26 10:31:00,
2013-05-26 05:34:00,70.7,67.6,29.90,SSE,156,7.0,15.0,90,0.00,,---,0.00,VWS V14.01,2013-05-26 10:34:00,
2013-05-26 05:40:00,70.8,67.7,29.89,SSE,155,9.0,15.0,90,0.00,,---,0.00,VWS V14.01,2013-05-26 10:40:00,
2013-05-26 05:43:00,70.8,67.7,29.89,SE,146,5.0,15.0,90,0.00,,---,0.00,VWS V14.01,2013-05-26 10:43:00,
2013-05-26 05:49:00,70.7,67.6,29.89,SSE,163,7.0,15.0,90,0.00,,---,0.00,VWS V14.01,2013-05-26 10:49:00,
2013-05-26 05:52:00,70.7,67.6,29.90,SE,143,8.0,15.0,90,0.00,,---,0.00,VWS V14.01,2013-05-26 10:52:00,
2013-05-26 05:55:00,70.8,67.7,29.90,South,169,12.0,16.0,90,0.00,,---,0.00,VWS V14.01,2013-05-26 10:55:00,
2013-05-26 05:58:00,70.9,67.8,29.90,SE,146,7.0,16.0,90,0.00,,---,0.00,VWS V14.01,2013-05-26 10:58:00,
2013-05-26 06:01:00,71.0,67.6,29.90,South,172,9.0,16.0,89,0.00,,---,0.00,VWS V14.01,2013-05-26 11:01:00,
2013-05-26 06:04:00,71.0,67.6,29.90,SSE,163,9.0,16.0,89,0.00,,---,0.00,VWS V14.01,2013-05-26 11:04:00,
2013-05-26 06:07:00,71.0,67.6,29.90,SSE,150,13.0,17.0,89,0.00,,---,0.00,VWS V14.01,2013-05-26 11:07:00,
2013-05-26 06:13:00,71.1,67.7,29.90,SSE,167,18.0,18.0,89,0.00,,---,0.00,VWS V14.01,2013-05-26 11:13:00,
2013-05-26 06:17:00,71.2,67.8,29.89,SSE,148,8.0,19.0,89,0.00,,---,0.00,VWS V14.01,2013-05-26 11:17:00,
2013-05-26 06:20:00,71.2,67.8,29.89,SSE,160,13.0,19.0,89,0.00,,---,0.00,VWS V14.01,2013-05-26 11:20:00,
2013-05-26 06:23:00,71.3,67.9,29.89,South,171,11.0,19.0,89,0.00,,---,0.00,VWS V14.01,2013-05-26 11:23:00,
2013-05-26 06:26:00,71.3,67.9,29.89,SE,146,12.0,19.0,89,0.00,,---,0.00,VWS V14.01,2013-05-26 11:26:00,
2013-05-26 06:28:00,71.3,67.9,29.89,SSE,163,6.0,19.0,89,0.00,,---,0.00,VWS V14.01,2013-05-26 11:28:00,
2013-05-26 06:32:00,71.2,67.8,29.90,SSE,161,9.0,15.0,89,0.00,,---,0.00,VWS V14.01,2013-05-26 11:32:00,
2013-05-26 06:35:00,71.3,67.9,29.90,SSE,156,14.0,15.0,89,0.00,,---,0.00,VWS V14.01,2013-05-26 11:35:00,
2013-05-26 06:38:00,71.3,67.9,29.91,SSE,165,10.0,17.0,89,0.00,,---,0.00,VWS V14.01,2013-05-26 11:38:00,
2013-05-26 06:41:00,71.4,67.7,29.91,SSE,168,6.0,17.0,88,0.00,,---,0.00,VWS V14.01,2013-05-26 11:41:00,
2013-05-26 06:44:00,71.4,67.7,29.91,SSE,153,4.0,17.0,88,0.00,,---,0.00,VWS V14.01,2013-05-26 11:44:00,
2013-05-26 06:47:00,71.4,67.7,29.91,South,180,7.0,17.0,88,0.00,,---,0.00,VWS V14.01,2013-05-26 11:47:00,
2013-05-26 06:50:00,71.4,67.7,29.91,SSE,165,8.0,17.0,88,0.00,,---,0.00,VWS V14.01,2013-05-26 11:50:00,
2013-05-26 06:56:00,71.5,67.8,29.92,South,186,8.0,17.0,88,0.00,,---,0.00,VWS V14.01,2013-05-26 11:56:00,
2013-05-26 06:58:00,71.5,67.8,29.92,South,191,9.0,17.0,88,0.00,,---,0.00,VWS V14.01,2013-05-26 11:58:00,
2013-05-26 06:59:00,71.5,67.8,29.92,SSE,165,14.0,15.0,88,0.00,,---,0.00,VWS V14.01,2013-05-26 11:59:00,
2013-05-26 07:02:00,71.6,67.9,29.92,South,175,9.0,15.0,88,0.00,,---,0.00,VWS V14.01,2013-05-26 12:02:00,
2013-05-26 07:05:00,71.6,67.9,29.92,SSE,165,7.0,15.0,88,0.00,,---,0.00,VWS V14.01,2013-05-26 12:05:00,
2013-05-26 07:08:00,71.6,67.9,29.92,South,170,7.0,15.0,88,0.00,,---,0.00,VWS V14.01,2013-05-26 12:08:00,
2013-05-26 07:11:00,71.7,68.0,29.93,SSE,161,10.0,15.0,88,0.00,,---,0.00,VWS V14.01,2013-05-26 12:11:00,
2013-05-26 07:14:00,71.8,68.1,29.92,SSE,165,7.0,15.0,88,0.00,,---,0.00,VWS V14.01,2013-05-26 12:14:00,
2013-05-26 07:17:00,71.9,68.2,29.92,South,182,13.0,17.0,88,0.00,,---,0.00,VWS V14.01,2013-05-26 12:17:00,
2013-05-26 07:20:00,71.9,68.2,29.92,South,170,8.0,17.0,88,0.00,,---,0.00,VWS V14.01,2013-05-26 12:20:00,
2013-05-26 07:23:00,72.0,68.3,29.92,South,178,5.0,17.0,88,0.00,,---,0.00,VWS V14.01,2013-05-26 12:23:00,
2013-05-26 07:26:00,72.1,68.0,29.92,South,173,6.0,17.0,87,0.00,,---,0.00,VWS V14.01,2013-05-26 12:26:00,
2013-05-26 07:28:00,72.2,68.1,29.92,South,175,4.0,17.0,87,0.00,,---,0.00,VWS V14.01,2013-05-26 12:28:00,
2013-05-26 07:32:00,72.5,68.4,29.92,SSE,166,6.0,15.0,87,0.00,,---,0.00,VWS V14.01,2013-05-26 12:32:00,
2013-05-26 07:35:00,72.5,68.1,29.92,South,174,9.0,15.0,86,0.00,,---,0.00,VWS V14.01,2013-05-26 12:35:00,
2013-05-26 07:38:00,72.6,68.2,29.92,SSE,159,6.0,15.0,86,0.00,,---,0.00,VWS V14.01,2013-05-26 12:38:00,
2013-05-26 07:41:00,72.6,68.2,29.92,SSE,156,7.0,15.0,86,0.00,,---,0.00,VWS V14.01,2013-05-26 12:41:00,
2013-05-26 07:44:00,72.6,68.2,29.92,South,180,4.0,15.0,86,0.00,,---,0.00,VWS V14.01,2013-05-26 12:44:00,
2013-05-26 07:47:00,72.7,68.3,29.93,SE,142,12.0,15.0,86,0.00,,---,0.00,VWS V14.01,2013-05-26 12:47:00,
2013-05-26 07:50:00,72.7,68.3,29.92,SSW,200,9.0,15.0,86,0.00,,---,0.00,VWS V14.01,2013-05-26 12:50:00,
2013-05-26 07:53:00,72.8,68.4,29.92,South,190,7.0,15.0,86,0.00,,---,0.00,VWS V14.01,2013-05-26 12:53:00,
2013-05-26 07:56:00,72.9,68.5,29.92,SSW,200,9.0,15.0,86,0.00,,---,0.00,VWS V14.01,2013-05-26 12:56:00,
2013-05-26 07:58:00,72.9,68.5,29.92,South,185,8.0,15.0,86,0.00,,---,0.00,VWS V14.01,2013-05-26 12:58:00,
2013-05-26 08:02:00,73.0,68.2,29.92,SSE,158,7.0,13.0,85,0.00,,---,0.00,VWS V14.01,2013-05-26 13:02:00,
2013-05-26 08:05:00,73.1,68.3,29.92,SE,138,9.0,13.0,85,0.00,,---,0.00,VWS V14.01,2013-05-26 13:05:00,
2013-05-26 08:08:00,73.2,68.4,29.92,SSW,192,7.0,15.0,85,0.00,,---,0.00,VWS V14.01,2013-05-26 13:08:00,
2013-05-26 08:11:00,73.3,68.5,29.92,SSE,167,8.0,16.0,85,0.00,,---,0.00,VWS V14.01,2013-05-26 13:11:00,
2013-05-26 08:14:00,73.5,68.7,29.92,SSE,166,10.0,16.0,85,0.00,,---,0.00,VWS V14.01,2013-05-26 13:14:00,
2013-05-26 08:17:00,73.6,68.8,29.92,South,169,9.0,16.0,85,0.00,,---,0.00,VWS V14.01,2013-05-26 13:17:00,
2013-05-26 08:20:00,73.6,68.8,29.91,SE,146,6.0,16.0,85,0.00,,---,0.00,VWS V14.01,2013-05-26 13:20:00,
2013-05-26 08:26:00,73.7,68.6,29.91,SSE,153,9.0,16.0,84,0.00,,---,0.00,VWS V14.01,2013-05-26 13:26:00,
2013-05-26 08:28:00,73.7,68.6,29.91,SSE,166,6.0,16.0,84,0.00,,---,0.00,VWS V14.01,2013-05-26 13:28:00,
2013-05-26 08:30:00,73.8,68.7,29.91,South,178,11.0,17.0,84,0.00,,---,0.00,VWS V14.01,2013-05-26 13:30:00,
2013-05-26 08:36:00,74.0,68.9,29.91,South,173,14.0,18.0,84,0.00,,---,0.00,VWS V14.01,2013-05-26 13:36:00,
2013-05-26 08:39:00,74.1,68.6,29.91,SSE,154,11.0,18.0,83,0.00,,---,0.00,VWS V14.01,2013-05-26 13:39:00,
2013-05-26 08:42:00,74.2,68.7,29.91,South,180,7.0,18.0,83,0.00,,---,0.00,VWS V14.01,2013-05-26 13:42:00,
2013-05-26 08:45:00,74.2,68.7,29.91,SSW,205,8.0,18.0,83,0.00,,---,0.00,VWS V14.01,2013-05-26 13:45:00,
2013-05-26 08:48:00,74.4,68.9,29.92,SSE,148,7.0,18.0,83,0.00,,---,0.00,VWS V14.01,2013-05-26 13:48:00,
2013-05-26 08:51:00,74.7,69.2,29.92,SSE,166,4.0,18.0,83,0.00,,---,0.00,VWS V14.01,2013-05-26 13:51:00,
2013-05-26 08:57:00,74.6,68.8,29.92,SSE,165,11.0,18.0,82,0.00,,---,0.00,VWS V14.01,2013-05-26 13:57:00,
2013-05-26 09:03:00,74.8,68.9,29.92,South,170,5.0,17.0,82,0.00,,---,0.00,VWS V14.01,2013-05-26 14:03:00,
2013-05-26 09:09:00,75.2,69.0,29.93,SE,146,8.0,20.0,81,0.00,,---,0.00,VWS V14.01,2013-05-26 14:09:00,
2013-05-26 09:12:00,75.5,69.3,29.93,SSE,156,6.0,20.0,81,0.00,,---,0.00,VWS V14.01,2013-05-26 14:12:00,
2013-05-26 09:15:00,75.9,69.3,29.93,South,174,10.0,20.0,80,0.00,,---,0.00,VWS V14.01,2013-05-26 14:15:00,
2013-05-26 09:18:00,76.1,69.5,29.93,SSE,163,10.0,20.0,80,0.00,,---,0.00,VWS V14.01,2013-05-26 14:18:00,
2013-05-26 09:21:00,76.1,69.1,29.93,SE,138,12.0,20.0,79,0.00,,---,0.00,VWS V14.01,2013-05-26 14:21:00,
2013-05-26 09:24:00,75.9,68.9,29.93,South,169,10.0,20.0,79,0.00,,---,0.00,VWS V14.01,2013-05-26 14:24:00,
2013-05-26 09:27:00,75.7,69.1,29.93,South,178,11.0,20.0,80,0.00,,---,0.00,VWS V14.01,2013-05-26 14:27:00,
2013-05-26 09:33:00,75.3,69.1,29.93,SSE,167,11.0,15.0,81,0.00,,---,0.00,VWS V14.01,2013-05-26 14:33:00,
2013-05-26 09:36:00,75.4,69.2,29.93,SSE,165,8.0,16.0,81,0.00,,---,0.00,VWS V14.01,2013-05-26 14:36:00,
2013-05-26 09:39:00,75.7,69.5,29.94,SSW,196,9.0,16.0,81,0.00,,---,0.00,VWS V14.01,2013-05-26 14:39:00,
2013-05-26 09:42:00,76.1,69.5,29.94,SE,136,7.0,16.0,80,0.00,,---,0.00,VWS V14.01,2013-05-26 14:42:00,
2013-05-26 09:45:00,76.6,69.6,29.94,SSE,148,11.0,19.0,79,0.00,,---,0.00,VWS V14.01,2013-05-26 14:45:00,
2013-05-26 09:48:00,76.9,69.9,29.94,SSW,196,8.0,19.0,79,0.00,,---,0.00,VWS V14.01,2013-05-26 14:48:00,
2013-05-26 09:51:00,77.1,69.7,29.94,SSW,198,9.0,19.0,78,0.00,,---,0.00,VWS V14.01,2013-05-26 14:51:00,
2013-05-26 09:57:00,77.3,69.5,29.95,South,169,4.0,19.0,77,0.00,,---,0.00,VWS V14.01,2013-05-26 14:57:00,
2013-05-26 10:00:00,77.1,69.7,29.95,SSE,167,9.0,15.0,78,0.00,,---,0.00,VWS V14.01,2013-05-26 15:00:00,
2013-05-26 10:03:00,77.0,69.6,29.95,South,169,8.0,16.0,78,0.00,,---,0.00,VWS V14.01,2013-05-26 15:03:00,
2013-05-26 10:09:00,77.0,69.6,29.94,South,185,13.0,16.0,78,0.00,,---,0.00,VWS V14.01,2013-05-26 15:09:00,
2013-05-26 10:12:00,77.1,69.3,29.94,SSE,165,13.0,16.0,77,0.00,,---,0.00,VWS V14.01,2013-05-26 15:12:00,
2013-05-26 10:15:00,77.0,69.2,29.94,SE,146,12.0,18.0,77,0.00,,---,0.00,VWS V14.01,2013-05-26 15:15:00,
2013-05-26 10:21:00,77.0,69.6,29.94,South,169,11.0,18.0,78,0.00,,---,0.00,VWS V14.01,2013-05-26 15:21:00,
2013-05-26 10:24:00,77.2,69.4,29.94,SSE,158,14.0,18.0,77,0.00,,---,0.00,VWS V14.01,2013-05-26 15:24:00,
2013-05-26 10:28:00,77.6,69.4,29.94,SSW,202,6.0,18.0,76,0.00,,---,0.00,VWS V14.01,2013-05-26 15:28:00,
2013-05-26 10:30:00,77.8,70.0,29.94,SSW,194,15.0,17.0,77,0.00,,---,0.00,VWS V14.01,2013-05-26 15:30:00,
2013-05-26 10:34:00,77.6,69.4,29.94,SSE,150,10.0,17.0,76,0.00,,---,0.00,VWS V14.01,2013-05-26 15:34:00,
2013-05-26 10:37:00,77.7,69.5,29.94,SSE,157,8.0,17.0,76,0.00,,---,0.00,VWS V14.01,2013-05-26 15:37:00,
2013-05-26 10:43:00,78.2,70.0,29.93,South,173,8.0,17.0,76,0.00,,---,0.00,VWS V14.01,2013-05-26 15:43:00,
2013-05-26 10:46:00,78.5,69.9,29.93,South,185,4.0,17.0,75,0.00,,---,0.00,VWS V14.01,2013-05-26 15:46:00,
2013-05-26 10:49:00,78.8,69.8,29.93,South,178,9.0,17.0,74,0.00,,---,0.00,VWS V14.01,2013-05-26 15:49:00,
2013-05-26 10:52:00,78.9,69.9,29.93,SSE,159,14.0,17.0,74,0.00,,---,0.00,VWS V14.01,2013-05-26 15:52:00,
2013-05-26 10:55:00,78.7,69.3,29.93,SSE,151,9.0,18.0,73,0.00,,---,0.00,VWS V14.01,2013-05-26 15:55:00,
2013-05-26 10:58:00,78.5,69.5,29.93,South,186,5.0,18.0,74,0.00,,---,0.00,VWS V14.01,2013-05-26 15:58:00,
2013-05-26 11:04:00,78.5,69.5,29.94,South,181,6.0,12.0,74,0.00,,---,0.00,VWS V14.01,2013-05-26 16:04:00,
2013-05-26 11:10:00,78.4,69.4,29.94,South,169,10.0,16.0,74,0.00,,---,0.00,VWS V14.01,2013-05-26 16:10:00,
2013-05-26 11:13:00,78.4,69.8,29.94,SSW,197,7.0,16.0,75,0.00,,---,0.00,VWS V14.01,2013-05-26 16:13:00,
2013-05-26 11:16:00,78.5,69.9,29.94,SSE,166,11.0,16.0,75,0.00,,---,0.00,VWS V14.01,2013-05-26 16:16:00,
2013-05-26 11:19:00,78.7,70.1,29.94,SSE,167,8.0,16.0,75,0.00,,---,0.00,VWS V14.01,2013-05-26 16:19:00,
2013-05-26 11:22:00,78.8,69.8,29.94,South,191,9.0,16.0,74,0.00,,---,0.00,VWS V14.01,2013-05-26 16:22:00,
2013-05-26 11:25:00,78.9,69.9,29.95,SSW,211,7.0,16.0,74,0.00,,---,0.00,VWS V14.01,2013-05-26 16:25:00,
2013-05-26 11:28:00,78.9,69.9,29.95,SSE,159,8.0,16.0,74,0.00,,---,0.00,VWS V14.01,2013-05-26 16:28:00,
2013-05-26 11:31:00,78.9,69.5,29.95,SSW,198,7.0,16.0,73,0.00,,---,0.00,VWS V14.01,2013-05-26 16:31:00,
2013-05-26 11:37:00,79.0,69.6,29.95,South,175,9.0,16.0,73,0.00,,---,0.00,VWS V14.01,2013-05-26 16:37:00,
2013-05-26 11:40:00,79.1,69.7,29.94,SSE,150,6.0,16.0,73,0.00,,---,0.00,VWS V14.01,2013-05-26 16:40:00,
2013-05-26 11:43:00,79.4,70.4,29.94,SSW,202,5.0,16.0,74,0.00,,---,0.00,VWS V14.01,2013-05-26 16:43:00,
2013-05-26 11:46:00,79.6,70.2,29.94,South,170,5.0,16.0,73,0.00,,---,0.00,VWS V14.01,2013-05-26 16:46:00,
2013-05-26 11:49:00,79.9,70.5,29.94,South,178,10.0,16.0,73,0.00,,---,0.00,VWS V14.01,2013-05-26 16:49:00,
2013-05-26 11:55:00,80.3,70.1,29.94,SSE,166,10.0,16.0,71,0.00,,---,0.00,VWS V14.01,2013-05-26 16:55:00,
2013-05-26 11:58:00,80.3,70.1,29.94,SSE,165,8.0,16.0,71,0.00,,---,0.00,VWS V14.01,2013-05-26 16:58:00,
2013-05-26 12:01:00,80.7,71.2,29.94,South,184,7.0,9.0,73,0.00,,---,0.00,VWS V14.01,2013-05-26 17:01:00,
2013-05-26 12:04:00,81.2,71.3,29.94,South,171,13.0,13.0,72,0.00,,---,0.00,VWS V14.01,2013-05-26 17:04:00,
2013-05-26 12:07:00,81.9,71.2,29.94,South,186,6.0,13.0,70,0.00,,---,0.00,VWS V14.01,2013-05-26 17:07:00,
2013-05-26 12:10:00,82.4,71.2,29.94,South,180,6.0,14.0,69,0.00,,---,0.00,VWS V14.01,2013-05-26 17:10:00,
2013-05-26 12:13:00,82.4,70.8,29.94,South,188,7.0,14.0,68,0.00,,---,0.00,VWS V14.01,2013-05-26 17:13:00,
2013-05-26 12:16:00,82.6,71.0,29.94,SSW,209,7.0,14.0,68,0.00,,---,0.00,VWS V14.01,2013-05-26 17:16:00,
2013-05-26 12:22:00,82.9,71.3,29.94,SSE,152,11.0,14.0,68,0.00,,---,0.00,VWS V14.01,2013-05-26 17:22:00,
2013-05-26 12:28:00,83.2,70.7,29.94,SSW,192,10.0,14.0,66,0.00,,---,0.00,VWS V14.01,2013-05-26 17:28:00,
2013-05-26 12:31:00,83.4,71.7,29.94,SSE,153,9.0,14.0,68,0.00,,---,0.00,VWS V14.01,2013-05-26 17:31:00,
2013-05-26 12:34:00,83.7,70.7,29.94,South,190,6.0,14.0,65,0.00,,---,0.00,VWS V14.01,2013-05-26 17:34:00,
2013-05-26 12:37:00,83.4,70.9,29.94,South,181,11.0,14.0,66,0.00,,---,0.00,VWS V14.01,2013-05-26 17:37:00,
2013-05-26 12:40:00,83.9,71.3,29.94,SSW,198,9.0,14.0,66,0.00,,---,0.00,VWS V14.01,2013-05-26 17:40:00,
2013-05-26 12:43:00,83.8,71.2,29.94,South,183,14.0,14.0,66,0.00,,---,0.00,VWS V14.01,2013-05-26 17:43:00,
2013-05-26 12:46:00,84.3,71.3,29.94,SSW,199,7.0,18.0,65,0.00,,---,0.00,VWS V14.01,2013-05-26 17:46:00,
2013-05-26 12:50:00,84.9,71.4,29.94,South,173,12.0,18.0,64,0.00,,---,0.00,VWS V14.01,2013-05-26 17:50:00,
2013-05-26 12:53:00,84.3,71.7,29.94,SSE,149,8.0,18.0,66,0.00,,---,0.00,VWS V14.01,2013-05-26 17:53:00,
2013-05-26 12:56:00,84.4,70.9,29.94,South,169,9.0,18.0,64,0.00,,---,0.00,VWS V14.01,2013-05-26 17:56:00,
2013-05-26 12:58:00,84.5,71.0,29.93,SSW,196,8.0,18.0,64,0.00,,---,0.00,VWS V14.01,2013-05-26 17:58:00,
2013-05-26 12:59:00,84.5,71.0,29.93,SSW,196,6.0,10.0,64,0.00,,---,0.00,VWS V14.01,2013-05-26 17:59:00,
2013-05-26 13:05:00,85.2,70.7,29.93,SSW,203,11.0,14.0,62,0.00,,---,0.00,VWS V14.01,2013-05-26 18:05:00,
2013-05-26 13:08:00,85.6,71.1,29.93,SSW,198,8.0,14.0,62,0.00,,---,0.00,VWS V14.01,2013-05-26 18:08:00,
2013-05-26 13:11:00,85.5,71.0,29.93,SSE,147,10.0,14.0,62,0.00,,---,0.00,VWS V14.01,2013-05-26 18:11:00,
2013-05-26 13:14:00,85.2,70.7,29.92,SSW,202,10.0,14.0,62,0.00,,---,0.00,VWS V14.01,2013-05-26 18:14:00,
2013-05-26 13:17:00,84.9,70.9,29.92,South,185,7.0,14.0,63,0.00,,---,0.00,VWS V14.01,2013-05-26 18:17:00,
2013-05-26 13:20:00,85.4,71.4,29.92,SSE,152,11.0,14.0,63,0.00,,---,0.00,VWS V14.01,2013-05-26 18:20:00,
2013-05-26 13:23:00,85.6,70.6,29.92,South,172,10.0,14.0,61,0.00,,---,0.00,VWS V14.01,2013-05-26 18:23:00,
2013-05-26 13:26:00,85.0,71.0,29.92,South,190,5.0,14.0,63,0.00,,---,0.00,VWS V14.01,2013-05-26 18:26:00,
2013-05-26 13:28:00,85.0,71.0,29.92,South,188,8.0,14.0,63,0.00,,---,0.00,VWS V14.01,2013-05-26 18:28:00,
2013-05-26 13:32:00,85.0,71.0,29.92,SSE,151,9.0,14.0,63,0.00,,---,0.00,VWS V14.01,2013-05-26 18:32:00,
2013-05-26 13:35:00,85.5,71.5,29.91,SSE,155,11.0,14.0,63,0.00,,---,0.00,VWS V14.01,2013-05-26 18:35:00,
2013-05-26 13:38:00,85.6,72.0,29.91,SSW,199,7.0,16.0,64,0.00,,---,0.00,VWS V14.01,2013-05-26 18:38:00,
2013-05-26 13:44:00,86.3,71.3,29.91,SSE,156,8.0,16.0,61,0.00,,---,0.00,VWS V14.01,2013-05-26 18:44:00,
2013-05-26 13:47:00,86.3,71.3,29.91,SSE,148,11.0,16.0,61,0.00,,---,0.00,VWS V14.01,2013-05-26 18:47:00,
2013-05-26 13:50:00,86.9,71.3,29.91,South,175,9.0,16.0,60,0.00,,---,0.00,VWS V14.01,2013-05-26 18:50:00,
2013-05-26 13:56:00,86.9,71.8,29.90,SE,144,7.0,16.0,61,0.00,,---,0.00,VWS V14.01,2013-05-26 18:56:00,
2013-05-26 13:58:00,87.2,71.6,29.90,SSW,212,8.0,16.0,60,0.00,,---,0.00,VWS V14.01,2013-05-26 18:58:00,
2013-05-26 14:02:00,87.7,70.6,29.90,South,172,8.0,14.0,57,0.00,,---,0.00,VWS V14.01,2013-05-26 19:02:00,
2013-05-26 14:08:00,87.3,70.7,29.90,ESE,115,12.0,18.0,58,0.00,,---,0.00,VWS V14.01,2013-05-26 19:08:00,
2013-05-26 14:11:00,87.2,70.1,29.90,South,180,7.0,18.0,57,0.00,,---,0.00,VWS V14.01,2013-05-26 19:11:00,
2013-05-26 14:14:00,87.5,71.4,29.89,SE,140,10.0,18.0,59,0.00,,---,0.00,VWS V14.01,2013-05-26 19:14:00,
2013-05-26 14:17:00,88.3,71.2,29.89,SSE,159,10.0,18.0,57,0.00,,---,0.00,VWS V14.01,2013-05-26 19:17:00,
2013-05-26 14:20:00,88.6,70.4,29.89,SSE,161,6.0,18.0,55,0.00,,---,0.00,VWS V14.01,2013-05-26 19:20:00,
2013-05-26 14:23:00,88.4,70.7,29.89,SSE,150,8.0,18.0,56,0.00,,---,0.00,VWS V14.01,2013-05-26 19:23:00,
2013-05-26 14:26:00,88.7,71.5,29.89,SE,144,11.0,18.0,57,0.00,,---,0.00,VWS V14.01,2013-05-26 19:26:00,
2013-05-26 14:29:00,89.0,70.8,29.89,South,170,11.0,13.0,55,0.00,,---,0.00,VWS V14.01,2013-05-26 19:29:00,
2013-05-26 14:32:00,89.0,72.3,29.89,SSW,208,7.0,15.0,58,0.00,,---,0.00,VWS V14.01,2013-05-26 19:32:00,
2013-05-26 14:35:00,89.1,70.3,29.89,South,182,7.0,15.0,54,0.00,,---,0.00,VWS V14.01,2013-05-26 19:35:00,
2013-05-26 14:38:00,89.0,71.3,29.88,SSE,148,8.0,15.0,56,0.00,,---,0.00,VWS V14.01,2013-05-26 19:38:00,
2013-05-26 14:41:00,88.4,70.2,29.88,SSE,150,9.0,15.0,55,0.00,,---,0.00,VWS V14.01,2013-05-26 19:41:00,
2013-05-26 14:47:00,88.9,70.7,29.88,South,177,7.0,15.0,55,0.00,,---,0.00,VWS V14.01,2013-05-26 19:47:00,
2013-05-26 14:50:00,89.2,70.4,29.88,South,171,10.0,17.0,54,0.00,,---,0.00,VWS V14.01,2013-05-26 19:50:00,
2013-05-26 14:53:00,89.0,70.2,29.88,SSE,168,10.0,17.0,54,0.00,,---,0.00,VWS V14.01,2013-05-26 19:53:00,
2013-05-26 14:56:00,88.7,69.4,29.88,SSE,159,7.0,17.0,53,0.00,,---,0.00,VWS V14.01,2013-05-26 19:56:00,
2013-05-26 14:58:00,88.3,69.6,29.88,SE,141,10.0,17.0,54,0.00,,---,0.00,VWS V14.01,2013-05-26 19:58:00,
2013-05-26 15:00:00,88.0,69.8,29.87,South,179,11.0,11.0,55,0.00,,---,0.00,VWS V14.01,2013-05-26 20:00:00,
2013-05-26 15:06:00,89.2,70.4,29.87,South,178,7.0,18.0,54,0.00,,---,0.00,VWS V14.01,2013-05-26 20:06:00,
2013-05-26 15:12:00,89.7,70.9,29.87,South,179,6.0,18.0,54,0.00,,---,0.00,VWS V14.01,2013-05-26 20:12:00,
2013-05-26 15:15:00,89.1,69.8,29.87,South,176,5.0,18.0,53,0.00,,---,0.00,VWS V14.01,2013-05-26 20:15:00,
2013-05-26 15:21:00,89.2,69.8,29.86,South,190,7.0,18.0,53,0.00,,---,0.00,VWS V14.01,2013-05-26 20:21:00,
2013-05-26 15:24:00,89.5,71.2,29.86,SE,139,12.0,18.0,55,0.00,,---,0.00,VWS V14.01,2013-05-26 20:24:00,
2013-05-26 15:27:00,89.1,69.2,29.86,SSW,193,7.0,18.0,52,0.00,,---,0.00,VWS V14.01,2013-05-26 20:27:00,
2013-05-26 15:28:00,88.5,69.2,29.86,SSW,195,7.0,18.0,53,0.00,,---,0.00,VWS V14.01,2013-05-26 20:28:00,
2013-05-26 15:33:00,87.9,70.3,29.86,South,182,9.0,17.0,56,0.00,,---,0.00,VWS V14.01,2013-05-26 20:33:00,
2013-05-26 15:36:00,88.6,69.8,29.86,SSE,157,8.0,17.0,54,0.00,,---,0.00,VWS V14.01,2013-05-26 20:36:00,
2013-05-26 15:39:00,89.5,70.7,29.86,SSE,159,8.0,17.0,54,0.00,,---,0.00,VWS V14.01,2013-05-26 20:39:00,
2013-05-26 15:42:00,90.1,70.7,29.85,SSE,162,14.0,17.0,53,0.00,,---,0.00,VWS V14.01,2013-05-26 20:42:00,
2013-05-26 15:45:00,89.7,70.3,29.85,South,183,15.0,17.0,53,0.00,,---,0.00,VWS V14.01,2013-05-26 20:45:00,
2013-05-26 15:48:00,89.6,71.3,29.85,SSE,166,10.0,18.0,55,0.00,,---,0.00,VWS V14.01,2013-05-26 20:48:00,
2013-05-26 15:51:00,89.7,69.8,29.85,SSW,193,7.0,18.0,52,0.00,,---,0.00,VWS V14.01,2013-05-26 20:51:00,
2013-05-26 15:54:00,89.9,69.9,29.85,SSW,192,11.0,18.0,52,0.00,,---,0.00,VWS V14.01,2013-05-26 20:54:00,
2013-05-26 15:57:00,90.5,71.1,29.85,South,190,7.0,18.0,53,0.00,,---,0.00,VWS V14.01,2013-05-26 20:57:00,
2013-05-26 15:58:00,90.6,70.6,29.85,SSE,157,7.0,18.0,52,0.00,,---,0.00,VWS V14.01,2013-05-26 20:58:00,
2013-05-26 16:06:00,90.1,70.1,29.85,SSE,164,9.0,18.0,52,0.00,,---,0.00,VWS V14.01,2013-05-26 21:06:00,
2013-05-26 16:09:00,89.0,69.1,29.85,SSE,162,9.0,18.0,52,0.00,,---,0.00,VWS V14.01,2013-05-26 21:09:00,
2013-05-26 16:12:00,88.9,69.6,29.84,SSE,161,12.0,18.0,53,0.00,,---,0.00,VWS V14.01,2013-05-26 21:12:00,
2013-05-26 16:18:00,89.7,70.3,29.84,SSE,157,9.0,18.0,53,0.00,,---,0.00,VWS V14.01,2013-05-26 21:18:00,
2013-05-26 16:21:00,89.6,70.2,29.84,SE,144,9.0,18.0,53,0.00,,---,0.00,VWS V14.01,2013-05-26 21:21:00,
2013-05-26 16:27:00,89.2,69.8,29.84,SSE,148,17.0,18.0,53,0.00,,---,0.00,VWS V14.01,2013-05-26 21:27:00,
2013-05-26 16:33:00,89.8,70.4,29.84,SSE,168,7.0,18.0,53,0.00,,---,0.00,VWS V14.01,2013-05-26 21:33:00,
2013-05-26 16:39:00,90.0,70.6,29.84,SSE,159,8.0,18.0,53,0.00,,---,0.00,VWS V14.01,2013-05-26 21:39:00,
2013-05-26 16:42:00,90.2,69.1,29.84,South,173,7.0,18.0,50,0.00,,---,0.00,VWS V14.01,2013-05-26 21:42:00,
2013-05-26 16:45:00,89.8,69.3,29.84,SSE,159,6.0,18.0,51,0.00,,---,0.00,VWS V14.01,2013-05-26 21:45:00,
2013-05-26 16:48:00,90.0,68.9,29.84,South,190,7.0,18.0,50,0.00,,---,0.00,VWS V14.01,2013-05-26 21:48:00,
2013-05-26 16:51:00,90.1,69.0,29.84,SSE,157,10.0,18.0,50,0.00,,---,0.00,VWS V14.01,2013-05-26 21:51:00,
2013-05-26 16:54:00,89.8,68.7,29.83,South,174,12.0,18.0,50,0.00,,---,0.00,VWS V14.01,2013-05-26 21:54:00,
2013-05-26 16:57:00,89.5,69.0,29.83,SE,146,12.0,18.0,51,0.00,,---,0.00,VWS V14.01,2013-05-26 21:57:00,
2013-05-26 16:58:00,89.5,69.0,29.83,SSW,198,15.0,18.0,51,0.00,,---,0.00,VWS V14.01,2013-05-26 21:58:00,
2013-05-26 17:00:00,89.7,69.8,29.84,South,191,16.0,16.0,52,0.00,,---,0.00,VWS V14.01,2013-05-26 22:00:00,
2013-05-26 17:03:00,89.7,68.6,29.83,SSW,211,7.0,16.0,50,0.00,,---,0.00,VWS V14.01,2013-05-26 22:03:00,
2013-05-26 17:06:00,89.7,69.2,29.83,South,178,10.0,16.0,51,0.00,,---,0.00,VWS V14.01,2013-05-26 22:06:00,
2013-05-26 17:09:00,89.8,69.3,29.83,South,169,7.0,16.0,51,0.00,,---,0.00,VWS V14.01,2013-05-26 22:09:00,
2013-05-26 17:12:00,89.7,69.2,29.83,South,171,9.0,16.0,51,0.00,,---,0.00,VWS V14.01,2013-05-26 22:12:00,
2013-05-26 17:16:00,89.7,69.8,29.83,SE,139,13.0,17.0,52,0.00,,---,0.00,VWS V14.01,2013-05-26 22:16:00,
2013-05-26 17:19:00,89.5,69.6,29.83,SSE,165,7.0,18.0,52,0.00,,---,0.00,VWS V14.01,2013-05-26 22:19:00,
2013-05-26 17:22:00,89.7,69.2,29.83,South,186,8.0,18.0,51,0.00,,---,0.00,VWS V14.01,2013-05-26 22:22:00,
2013-05-26 17:25:00,89.7,70.3,29.83,SSE,161,9.0,18.0,53,0.00,,---,0.00,VWS V14.01,2013-05-26 22:25:00,
2013-05-26 17:28:00,89.9,68.8,29.83,South,180,9.0,18.0,50,0.00,,---,0.00,VWS V14.01,2013-05-26 22:28:00,
2013-05-26 17:31:00,89.7,69.2,29.83,SSE,157,9.0,17.0,51,0.00,,---,0.00,VWS V14.01,2013-05-26 22:31:00,
2013-05-26 17:34:00,89.2,69.3,29.82,South,171,6.0,17.0,52,0.00,,---,0.00,VWS V14.01,2013-05-26 22:34:00,
2013-05-26 17:40:00,89.5,69.6,29.82,SE,144,8.0,17.0,52,0.00,,---,0.00,VWS V14.01,2013-05-26 22:40:00,
2013-05-26 17:43:00,89.2,69.3,29.82,SSE,159,9.0,19.0,52,0.00,,---,0.00,VWS V14.01,2013-05-26 22:43:00,
2013-05-26 17:46:00,89.2,69.3,29.82,SSE,159,9.0,19.0,52,0.00,,---,0.00,VWS V14.01,2013-05-26 22:46:00,
2013-05-26 17:52:00,88.9,69.6,29.81,SSE,148,6.0,19.0,53,0.00,,---,0.00,VWS V14.01,2013-05-26 22:52:00,
2013-05-26 17:55:00,88.8,69.5,29.81,SE,139,9.0,19.0,53,0.00,,---,0.00,VWS V14.01,2013-05-26 22:55:00,
2013-05-26 17:58:00,88.8,68.9,29.81,SSE,168,11.0,19.0,52,0.00,,---,0.00,VWS V14.01,2013-05-26 22:58:00,
2013-05-26 18:01:00,88.7,68.8,29.81,SSE,147,7.0,15.0,52,0.00,,---,0.00,VWS V14.01,2013-05-26 23:01:00,
2013-05-26 18:04:00,88.8,68.9,29.81,SE,141,10.0,15.0,52,0.00,,---,0.00,VWS V14.01,2013-05-26 23:04:00,
2013-05-26 18:07:00,88.8,68.4,29.81,SSW,196,8.0,15.0,51,0.00,,---,0.00,VWS V14.01,2013-05-26 23:07:00,
2013-05-26 18:13:00,88.8,68.4,29.81,SSE,149,11.0,15.0,51,0.00,,---,0.00,VWS V14.01,2013-05-26 23:13:00,
2013-05-26 18:16:00,88.8,68.4,29.80,South,190,8.0,15.0,51,0.00,,---,0.00,VWS V14.01,2013-05-26 23:16:00,
2013-05-26 18:22:00,88.5,68.6,29.80,SSE,148,9.0,15.0,52,0.00,,---,0.00,VWS V14.01,2013-05-26 23:22:00,
2013-05-26 18:25:00,88.6,68.7,29.80,SSE,165,14.0,17.0,52,0.00,,---,0.00,VWS V14.01,2013-05-26 23:25:00,
2013-05-26 18:28:00,88.4,67.4,29.80,SE,135,12.0,18.0,50,0.00,,---,0.00,VWS V14.01,2013-05-26 23:28:00,
2013-05-26 18:34:00,87.9,66.9,29.80,SSE,157,12.0,17.0,50,0.00,,---,0.00,VWS V14.01,2013-05-26 23:34:00,
2013-05-26 18:37:00,88.0,66.5,29.80,South,173,9.0,17.0,49,0.00,,---,0.00,VWS V14.01,2013-05-26 23:37:00,
2013-05-26 18:40:00,87.8,65.7,29.80,SSE,165,7.0,22.0,48,0.00,,---,0.00,VWS V14.01,2013-05-26 23:40:00,
2013-05-26 18:43:00,87.7,65.6,29.80,SSE,153,14.0,22.0,48,0.00,,---,0.00,VWS V14.01,2013-05-26 23:43:00,
2013-05-26 18:46:00,87.5,66.0,29.80,South,171,9.0,22.0,49,0.00,,---,0.00,VWS V14.01,2013-05-26 23:46:00,
2013-05-26 18:49:00,87.4,66.5,29.80,South,175,10.0,22.0,50,0.00,,---,0.00,VWS V14.01,2013-05-26 23:49:00,
2013-05-26 18:52:00,87.3,65.8,29.80,South,170,15.0,22.0,49,0.00,,---,0.00,VWS V14.01,2013-05-26 23:52:00,
2013-05-26 18:55:00,87.2,65.7,29.80,SSE,165,9.0,22.0,49,0.00,,---,0.00,VWS V14.01,2013-05-26 23:55:00,
2013-05-26 18:58:00,87.0,65.6,29.80,SSE,161,10.0,22.0,49,0.00,,---,0.00,VWS V14.01,2013-05-26 23:58:00,
2013-05-26 19:04:00,87.0,65.6,29.80,South,178,9.0,15.0,49,0.00,,---,0.00,VWS V14.01,2013-05-27 00:04:00,
2013-05-26 19:07:00,87.1,65.6,29.80,South,190,10.0,15.0,49,0.00,,---,0.00,VWS V14.01,2013-05-27 00:07:00,
2013-05-26 19:10:00,86.9,65.5,29.80,South,190,7.0,15.0,49,0.00,,---,0.00,VWS V14.01,2013-05-27 00:10:00,
2013-05-26 19:13:00,86.8,65.9,29.80,South,173,7.0,15.0,50,0.00,,---,0.00,VWS V14.01,2013-05-27 00:13:00,
2013-05-26 19:16:00,86.6,65.8,29.80,SSW,193,9.0,15.0,50,0.00,,---,0.00,VWS V14.01,2013-05-27 00:16:00,
2013-05-26 19:19:00,86.5,65.7,29.80,South,175,8.0,15.0,50,0.00,,---,0.00,VWS V14.01,2013-05-27 00:19:00,
2013-05-26 19:25:00,86.2,66.0,29.80,SSE,165,10.0,19.0,51,0.00,,---,0.00,VWS V14.01,2013-05-27 00:25:00,
2013-05-26 19:28:00,86.1,65.9,29.80,SSE,161,12.0,19.0,51,0.00,,---,0.00,VWS V14.01,2013-05-27 00:28:00,
2013-05-26 19:32:00,85.9,66.2,29.80,SSE,159,6.0,14.0,52,0.00,,---,0.00,VWS V14.01,2013-05-27 00:32:00,
2013-05-26 19:35:00,85.8,66.2,29.80,South,173,11.0,16.0,52,0.00,,---,0.00,VWS V14.01,2013-05-27 00:35:00,
2013-05-26 19:38:00,85.6,66.0,29.80,SSE,153,12.0,18.0,52,0.00,,---,0.00,VWS V14.01,2013-05-27 00:38:00,
2013-05-26 19:41:00,85.4,65.8,29.80,South,180,9.0,18.0,52,0.00,,---,0.00,VWS V14.01,2013-05-27 00:41:00,
2013-05-26 19:47:00,85.1,66.1,29.80,South,190,9.0,18.0,53,0.00,,---,0.00,VWS V14.01,2013-05-27 00:47:00,
2013-05-26 19:50:00,85.0,66.5,29.80,South,175,10.0,18.0,54,0.00,,---,0.00,VWS V14.01,2013-05-27 00:50:00,
2013-05-26 19:53:00,84.8,66.3,29.80,South,183,5.0,18.0,54,0.00,,---,0.00,VWS V14.01,2013-05-27 00:53:00,
2013-05-26 19:56:00,84.7,66.8,29.80,SSE,167,7.0,18.0,55,0.00,,---,0.00,VWS V14.01,2013-05-27 00:56:00,
2013-05-26 19:58:00,84.5,66.6,29.80,SSE,160,11.0,18.0,55,0.00,,---,0.00,VWS V14.01,2013-05-27 00:58:00,
2013-05-26 20:05:00,84.1,66.7,29.80,South,169,7.0,14.0,56,0.00,,---,0.00,VWS V14.01,2013-05-27 01:05:00,
2013-05-26 20:08:00,83.9,66.5,29.80,South,172,11.0,14.0,56,0.00,,---,0.00,VWS V14.01,2013-05-27 01:08:00,
2013-05-26 20:11:00,83.7,66.9,29.80,SSE,160,9.0,14.0,57,0.00,,---,0.00,VWS V14.01,2013-05-27 01:11:00,
2013-05-26 20:14:00,83.5,66.7,29.80,SSE,162,4.0,14.0,57,0.00,,---,0.00,VWS V14.01,2013-05-27 01:14:00,
2013-05-26 20:17:00,83.4,67.1,29.80,South,175,6.0,14.0,58,0.00,,---,0.00,VWS V14.01,2013-05-27 01:17:00,
2013-05-26 20:20:00,83.2,66.9,29.80,SSE,153,5.0,14.0,58,0.00,,---,0.00,VWS V14.01,2013-05-27 01:20:00,
2013-05-26 20:23:00,82.9,67.1,29.81,SSW,192,6.0,14.0,59,0.00,,---,0.00,VWS V14.01,2013-05-27 01:23:00,
2013-05-26 20:26:00,82.8,67.5,29.81,South,174,6.0,14.0,60,0.00,,---,0.00,VWS V14.01,2013-05-27 01:26:00,
2013-05-26 20:28:00,82.6,67.3,29.81,SSE,164,6.0,14.0,60,0.00,,---,0.00,VWS V14.01,2013-05-27 01:28:00,
2013-05-26 20:29:00,82.6,67.8,29.81,South,175,5.0,7.0,61,0.00,,---,0.00,VWS V14.01,2013-05-27 01:29:00,
2013-05-26 20:35:00,82.3,68.0,29.81,South,173,4.0,12.0,62,0.00,,---,0.00,VWS V14.01,2013-05-27 01:35:00,
2013-05-26 20:38:00,82.1,67.8,29.81,SSE,157,5.0,12.0,62,0.00,,---,0.00,VWS V14.01,2013-05-27 01:38:00,
2013-05-26 20:41:00,82.0,68.2,29.81,SSE,161,7.0,12.0,63,0.00,,---,0.00,VWS V14.01,2013-05-27 01:41:00,
2013-05-26 20:44:00,81.9,68.1,29.81,SSE,167,2.0,12.0,63,0.00,,---,0.00,VWS V14.01,2013-05-27 01:44:00,
2013-05-26 20:47:00,81.7,68.3,29.81,SSE,161,4.0,12.0,64,0.00,,---,0.00,VWS V14.01,2013-05-27 01:47:00,
2013-05-26 20:50:00,81.5,68.2,29.81,SSW,200,4.0,12.0,64,0.00,,---,0.00,VWS V14.01,2013-05-27 01:50:00,
2013-05-26 20:53:00,81.4,68.5,29.81,SSE,155,5.0,12.0,65,0.00,,---,0.00,VWS V14.01,2013-05-27 01:53:00,
2013-05-26 20:56:00,81.3,68.4,29.82,SSE,168,4.0,12.0,65,0.00,,---,0.00,VWS V14.01,2013-05-27 01:56:00,
2013-05-26 20:58:00,81.2,68.3,29.81,SSE,161,7.0,12.0,65,0.00,,---,0.00,VWS V14.01,2013-05-27 01:58:00,
2013-05-26 21:02:00,81.1,68.7,29.82,SSE,157,7.0,9.0,66,0.00,,---,0.00,VWS V14.01,2013-05-27 02:02:00,
2013-05-26 21:05:00,81.1,68.7,29.82,SSE,163,4.0,9.0,66,0.00,,---,0.00,VWS V14.01,2013-05-27 02:05:00,
2013-05-26 21:08:00,80.9,68.5,29.82,SSE,153,3.0,9.0,66,0.00,,---,0.00,VWS V14.01,2013-05-27 02:08:00,
2013-05-26 21:11:00,80.7,68.7,29.82,SSE,154,4.0,9.0,67,0.00,,---,0.00,VWS V14.01,2013-05-27 02:11:00,
2013-05-26 21:14:00,80.7,68.7,29.82,South,169,3.0,9.0,67,0.00,,---,0.00,VWS V14.01,2013-05-27 02:14:00,
2013-05-26 21:17:00,80.6,68.6,29.83,South,172,3.0,9.0,67,0.00,,---,0.00,VWS V14.01,2013-05-27 02:17:00,
2013-05-26 21:20:00,80.6,68.6,29.83,SSE,159,4.0,9.0,67,0.00,,---,0.00,VWS V14.01,2013-05-27 02:20:00,
2013-05-26 21:23:00,80.4,68.9,29.83,South,173,4.0,9.0,68,0.00,,---,0.00,VWS V14.01,2013-05-27 02:23:00,
2013-05-26 21:26:00,80.3,68.8,29.83,SSE,157,4.0,9.0,68,0.00,,---,0.00,VWS V14.01,2013-05-27 02:26:00,
2013-05-26 21:28:00,80.2,68.7,29.83,SSE,167,2.0,9.0,68,0.00,,---,0.00,VWS V14.01,2013-05-27 02:28:00,
2013-05-26 21:29:00,80.1,68.6,29.83,SSE,163,3.0,6.0,68,0.00,,---,0.00,VWS V14.01,2013-05-27 02:29:00,
2013-05-26 21:32:00,79.9,68.8,29.83,SSE,161,1.0,6.0,69,0.00,,---,0.00,VWS V14.01,2013-05-27 02:32:00,
2013-05-26 21:36:00,79.7,68.6,29.83,SSE,159,4.0,6.0,69,0.00,,---,0.00,VWS V14.01,2013-05-27 02:36:00,
2013-05-26 21:42:00,79.3,68.7,29.83,SSE,159,3.0,6.0,70,0.00,,---,0.00,VWS V14.01,2013-05-27 02:42:00,
2013-05-26 21:45:00,79.2,69.0,29.83,SSE,159,3.0,6.0,71,0.00,,---,0.00,VWS V14.01,2013-05-27 02:45:00,
2013-05-26 21:48:00,79.0,68.8,29.84,SSE,148,4.0,6.0,71,0.00,,---,0.00,VWS V14.01,2013-05-27 02:48:00,
2013-05-26 21:51:00,78.8,69.0,29.84,SSE,160,2.0,6.0,72,0.00,,---,0.00,VWS V14.01,2013-05-27 02:51:00,
2013-05-26 21:54:00,78.6,68.8,29.84,SSE,163,0.0,6.0,72,0.00,,---,0.00,VWS V14.01,2013-05-27 02:54:00,
2013-05-26 21:57:00,78.4,69.0,29.84,SSE,157,2.0,6.0,73,0.00,,---,0.00,VWS V14.01,2013-05-27 02:57:00,
2013-05-26 21:58:00,78.3,68.9,29.84,SSE,157,3.0,6.0,73,0.00,,---,0.00,VWS V14.01,2013-05-27 02:58:00,
2013-05-26 22:00:00,78.1,68.8,29.84,SSE,157,3.0,3.0,73,0.00,,---,0.00,VWS V14.01,2013-05-27 03:00:00,
2013-05-26 22:03:00,77.9,68.9,29.84,SSE,157,1.0,4.0,74,0.00,,---,0.00,VWS V14.01,2013-05-27 03:03:00,
2013-05-26 22:05:00,75.9,68.9,29.85,SSE,156,5.0,7.0,79,0.00,,---,0.00,VWS V14.01,2013-05-27 03:05:00,
2013-05-26 22:06:00,77.6,68.7,29.84,SSE,150,2.0,5.0,74,0.00,,---,0.00,VWS V14.01,2013-05-27 03:06:00,
2013-05-26 22:08:00,76.1,68.8,29.85,South,177,4.0,7.0,78,0.00,,---,0.00,VWS V14.01,2013-05-27 03:08:00,
2013-05-26 22:09:00,77.4,68.9,29.84,SE,142,3.0,5.0,75,0.00,,---,0.00,VWS V14.01,2013-05-27 03:09:00,
2013-05-26 22:11:00,76.4,69.0,29.86,South,178,2.0,8.0,78,0.00,,---,0.00,VWS V14.01,2013-05-27 03:11:00,
2013-05-26 22:12:00,77.2,68.7,29.84,SE,140,2.0,5.0,75,0.00,,---,0.00,VWS V14.01,2013-05-27 03:12:00,
2013-05-26 22:14:00,76.5,69.1,29.86,South,184,4.0,8.0,78,0.00,,---,0.00,VWS V14.01,2013-05-27 03:14:00,
2013-05-26 22:15:00,76.9,68.8,29.84,SE,137,3.0,5.0,76,0.00,,---,0.00,VWS V14.01,2013-05-27 03:15:00,
2013-05-26 22:17:00,76.5,69.1,29.86,South,175,5.0,8.0,78,0.00,,---,0.00,VWS V14.01,2013-05-27 03:17:00,
2013-05-26 22:18:00,76.8,68.7,29.84,SE,133,3.0,5.0,76,0.00,,---,0.00,VWS V14.01,2013-05-27 03:18:00,
2013-05-26 22:20:00,76.6,69.2,29.86,South,179,4.0,9.0,78,0.00,,---,0.00,VWS V14.01,2013-05-27 03:20:00,
2013-05-26 22:21:00,76.6,68.9,29.84,SE,136,3.0,5.0,77,0.00,,---,0.00,VWS V14.01,2013-05-27 03:21:00,
2013-05-26 22:23:00,76.6,69.2,29.86,South,178,2.0,9.0,78,0.00,,---,0.00,VWS V14.01,2013-05-27 03:23:00,
2013-05-26 22:24:00,76.5,68.8,29.84,SE,138,2.0,5.0,77,0.00,,---,0.00,VWS V14.01,2013-05-27 03:24:00,
2013-05-26 22:26:00,76.6,69.2,29.86,South,170,4.0,9.0,78,0.00,,---,0.00,VWS V14.01,2013-05-27 03:26:00,
2013-05-26 22:27:00,76.3,68.6,29.85,SE,136,2.0,5.0,77,0.00,,---,0.00,VWS V14.01,2013-05-27 03:27:00,
2013-05-26 22:28:00,76.2,68.8,29.85,SE,136,2.0,5.0,78,0.00,,---,0.00,VWS V14.01,2013-05-27 03:28:00,
2013-05-26 22:29:00,76.5,69.1,29.86,SSE,148,6.0,9.0,78,0.00,,---,0.00,VWS V14.01,2013-05-27 03:29:00,
2013-05-26 22:30:00,76.2,68.8,29.85,SE,138,3.0,4.0,78,0.00,,---,0.00,VWS V14.01,2013-05-27 03:30:00,
2013-05-26 22:32:00,76.6,69.2,29.86,South,188,3.0,11.0,78,0.00,,---,0.00,VWS V14.01,2013-05-27 03:32:00,
2013-05-26 22:33:00,76.0,68.7,29.85,SE,138,4.0,4.0,78,0.00,,---,0.00,VWS V14.01,2013-05-27 03:33:00,
2013-05-26 22:35:00,76.6,69.2,29.86,SSE,151,9.0,12.0,78,0.00,,---,0.00,VWS V14.01,2013-05-27 03:35:00,
2013-05-26 22:36:00,75.9,68.6,29.85,SE,136,2.0,4.0,78,0.00,,---,0.00,VWS V14.01,2013-05-27 03:36:00,
2013-05-26 22:38:00,76.8,69.4,29.86,SSE,167,5.0,12.0,78,0.00,,---,0.00,VWS V14.01,2013-05-27 03:38:00,
2013-05-26 22:39:00,75.8,68.5,29.85,SE,136,2.0,4.0,78,0.00,,---,0.00,VWS V14.01,2013-05-27 03:39:00,
2013-05-26 22:41:00,76.7,69.3,29.86,SSE,154,5.0,12.0,78,0.00,,---,0.00,VWS V14.01,2013-05-27 03:41:00,
2013-05-26 22:42:00,75.7,68.7,29.85,SE,130,4.0,6.0,79,0.00,,---,0.00,VWS V14.01,2013-05-27 03:42:00,
2013-05-26 22:44:00,76.7,69.3,29.86,South,171,5.0,12.0,78,0.00,,---,0.00,VWS V14.01,2013-05-27 03:44:00,
2013-05-26 22:45:00,75.7,68.7,29.85,SE,143,3.0,6.0,79,0.00,,---,0.00,VWS V14.01,2013-05-27 03:45:00,
2013-05-26 22:47:00,76.6,69.2,29.86,SSE,156,4.0,12.0,78,0.00,,---,0.00,VWS V14.01,2013-05-27 03:47:00,
2013-05-26 22:48:00,75.8,68.5,29.85,SSE,149,2.0,6.0,78,0.00,,---,0.00,VWS V14.01,2013-05-27 03:48:00,
2013-05-26 22:50:00,76.6,69.2,29.86,SSE,165,6.0,12.0,78,0.00,,---,0.00,VWS V14.01,2013-05-27 03:50:00,
2013-05-26 22:51:00,75.8,68.5,29.85,SSE,154,3.0,6.0,78,0.00,,---,0.00,VWS V14.01,2013-05-27 03:51:00,
2013-05-26 22:53:00,76.5,69.1,29.86,SSE,153,9.0,12.0,78,0.00,,---,0.00,VWS V14.01,2013-05-27 03:53:00,
2013-05-26 22:56:00,76.5,69.1,29.86,SSE,161,5.0,12.0,78,0.00,,---,0.00,VWS V14.01,2013-05-27 03:56:00,
2013-05-26 22:57:00,75.9,68.6,29.85,SSE,162,3.0,7.0,78,0.00,,---,0.00,VWS V14.01,2013-05-27 03:57:00,
2013-05-26 22:58:00,75.9,68.6,29.85,SSE,150,2.0,7.0,78,0.00,,---,0.00,VWS V14.01,2013-05-27 03:58:00,
2013-05-26 23:00:00,75.9,68.6,29.85,South,169,2.0,5.0,78,0.00,,---,0.00,VWS V14.01,2013-05-27 04:00:00,
2013-05-26 23:03:00,76.2,68.8,29.86,SSE,152,5.0,11.0,78,0.00,,---,0.00,VWS V14.01,2013-05-27 04:03:00,
2013-05-26 23:06:00,76.2,68.8,29.86,South,171,7.0,16.0,78,0.00,,---,0.00,VWS V14.01,2013-05-27 04:06:00,
2013-05-26 23:09:00,76.2,68.8,29.86,South,180,7.0,16.0,78,0.00,,---,0.00,VWS V14.01,2013-05-27 04:09:00,
2013-05-26 23:12:00,76.1,68.8,29.86,SSE,160,8.0,16.0,78,0.00,,---,0.00,VWS V14.01,2013-05-27 04:12:00,
2013-05-26 23:15:00,76.0,68.7,29.86,SSE,159,7.0,16.0,78,0.00,,---,0.00,VWS V14.01,2013-05-27 04:15:00,
2013-05-26 23:18:00,75.9,68.6,29.86,South,188,8.0,16.0,78,0.00,,---,0.00,VWS V14.01,2013-05-27 04:18:00,
2013-05-26 23:21:00,75.8,68.5,29.86,SSE,157,8.0,16.0,78,0.00,,---,0.00,VWS V14.01,2013-05-27 04:21:00,
2013-05-26 23:25:00,75.8,68.1,29.86,South,182,3.0,16.0,77,0.00,,---,0.00,VWS V14.01,2013-05-27 04:25:00,
2013-05-26 23:28:00,75.7,68.0,29.85,South,169,3.0,16.0,77,0.00,,---,0.00,VWS V14.01,2013-05-27 04:28:00,
2013-05-26 23:30:00,75.7,68.0,29.86,South,186,7.0,16.0,77,0.00,,---,0.00,VWS V14.01,2013-05-27 04:30:00,
2013-05-26 23:31:00,75.7,68.0,29.85,SSW,211,5.0,8.0,77,0.00,,---,0.00,VWS V14.01,2013-05-27 04:31:00,
2013-05-26 23:34:00,75.6,68.3,29.85,South,190,10.0,12.0,78,0.00,,---,0.00,VWS V14.01,2013-05-27 04:34:00,
2013-05-26 23:37:00,75.6,68.3,29.85,South,175,7.0,12.0,78,0.00,,---,0.00,VWS V14.01,2013-05-27 04:37:00,
2013-05-26 23:40:00,75.5,68.2,29.85,South,191,5.0,12.0,78,0.00,,---,0.00,VWS V14.01,2013-05-27 04:40:00,
2013-05-26 23:43:00,75.5,68.2,29.85,South,171,3.0,12.0,78,0.00,,---,0.00,VWS V14.01,2013-05-27 04:43:00,
2013-05-26 23:46:00,75.4,68.1,29.86,SSE,168,9.0,12.0,78,0.00,,---,0.00,VWS V14.01,2013-05-27 04:46:00,
2013-05-26 23:49:00,75.3,68.0,29.85,South,180,7.0,12.0,78,0.00,,---,0.00,VWS V14.01,2013-05-27 04:49:00,
2013-05-26 23:52:00,75.2,67.9,29.85,South,184,3.0,12.0,78,0.00,,---,0.00,VWS V14.01,2013-05-27 04:52:00,
2013-05-26 23:55:00,75.1,67.8,29.85,South,175,7.0,12.0,78,0.00,,---,0.00,VWS V14.01,2013-05-27 04:55:00,
2013-05-26 23:58:00,75.1,67.8,29.85,South,171,4.0,12.0,78,0.00,,---,0.00,VWS V14.01,2013-05-27 04:58:00,